Lynchburg, VA

8:26 AM EDT on October 16, 2019 (GMT -0400)
Lynchburg Regional-Glenn

Weather History for KLYH - August, 2019

Change the Weather History Date:

Tuesday, August 13, 2019

  Actual Average Record
Temperature  
Mean Temperature 82 °F 75 °F  
Max Temperature 93 °F 86 °F 98 °F (1935)
Min Temperature 71 °F 64 °F 49 °F (1930)
Degree Days  
Heating Degree Days 0 0  
Month to date heating degree days 0 0  
Since 1 June heating degree days 2 15  
Since 1 July heating degree days 0 1  
Cooling Degree Days 17 10  
Month to date cooling degree days 156 130  
Year to date cooling degree days 1011 744  
Since 1 June cooling degree days 799 662  
Growing Degree Days 32 (Base 50)    
Moisture  
Dew Point 72 °F    
Average Humidity 71    
Maximum Humidity 93    
Minimum Humidity 49    
Precipitation  
Precipitation 0.06 in 0.09 in 1.61 in (1984)
Month to date precipitation 2.22 1.40  
Year to date precipitation 26.56 26.07  
Snow  
Snow 0.00 in - - ()
Month to date snowfall 0.0  
Since 1 June snowfall 0.0  
Since 1 July snowfall 0.0  
Snow Depth 0.00 in    
Sea Level Pressure  
Sea Level Pressure 29.83 in    
Wind  
Wind Speed 5 mph (SSW)    
Max Wind Speed 12 mph    
Max Gust Speed 18 mph    
Visibility 10 miles    
Events Rain    
T = Trace of Precipitation, MM = Missing Value Source: NWS Daily Summary

Daily Weather History Graph

Daily Weather History Graph

Search for Another Location

Airport or City:

Astronomy

Aug. 13, 2019 Rise Set
Actual Time 6:31 AM EDT 8:11 PM EDT
Civil Twilight 6:03 AM EDT 8:39 PM EDT
Nautical Twilight 5:29 AM EDT 9:13 PM EDT
Astronomical Twilight 4:53 AM EDT 9:48 PM EDT
Moon 7:22 PM EDT (8/13) 4:34 AM EDT (8/13)
Length of Visible Light 14h 36m
Length of Day
13h 40m
Waxing Gibbous, 97% of the Moon is Illuminated
Aug 13
Waxing Gibbous
Aug 15
Full
Aug 23
Last Quarter
Aug 30
New
Sep 5
First Quarter

Hourly Weather History & Observations

Time (EDT) Temp. Heat Index Dew Point Humidity Pressure Visibility Wind Dir Wind Speed Gust Speed Precip Events Conditions
12:54 AM 75.9 °F - 70.0 °F 82% 29.91 in 10.0 mi SW 3.5 mph - 0.00 in   Clear
1:54 AM 75.0 °F - 70.0 °F 84% 29.90 in 10.0 mi South 3.5 mph - N/A   Clear
2:54 AM 75.0 °F - 69.1 °F 82% 29.89 in 10.0 mi SSW 4.6 mph - N/A   Mostly Cloudy
3:54 AM 73.9 °F - 69.1 °F 85% 29.89 in 10.0 mi WSW 6.9 mph - 0.02 in Rain Light Rain
4:54 AM 73.0 °F - 71.1 °F 93% 29.86 in 9.0 mi Calm Calm - 0.03 in   Overcast
5:54 AM 72.0 °F - 70.0 °F 93% 29.86 in 8.0 mi South 4.6 mph - N/A   Mostly Cloudy
6:54 AM 71.1 °F - 70.0 °F 96% 29.86 in 10.0 mi SSW 4.6 mph - N/A   Overcast
7:54 AM 72.0 °F - 70.0 °F 93% 29.86 in 10.0 mi SSW 4.6 mph - N/A   Mostly Cloudy
8:54 AM 73.9 °F - 71.1 °F 91% 29.87 in 10.0 mi SW 3.5 mph - N/A   Mostly Cloudy
9:54 AM 75.9 °F - 72.0 °F 87% 29.87 in 10.0 mi SSW 3.5 mph - N/A   Clear
10:54 AM 75.9 °F - 73.0 °F 91% 29.89 in 10.0 mi Calm Calm - 0.00 in Rain Light Rain
11:54 AM 78.1 °F - 75.0 °F 90% 29.84 in 9.0 mi SSE 9.2 mph - 0.01 in Rain Light Rain
12:54 PM 82.9 °F 90.8 °F 75.9 °F 79% 29.84 in 10.0 mi Variable 3.5 mph - 0.00 in   Clear
1:54 PM 87.1 °F 98.8 °F 77.0 °F 72% 29.82 in 10.0 mi South 5.8 mph - N/A   Mostly Cloudy
2:54 PM 91.0 °F 101.6 °F 75.0 °F 59% 29.79 in 10.0 mi Variable 6.9 mph - N/A   Partly Cloudy
3:54 PM 93.0 °F 100.7 °F 72.0 °F 50% 29.77 in 10.0 mi Variable 4.6 mph - N/A   Partly Cloudy
4:54 PM 91.0 °F 97.6 °F 71.1 °F 52% 29.77 in 10.0 mi SW 6.9 mph 17.3 mph N/A   Clear
5:54 PM 87.1 °F 92.8 °F 71.1 °F 59% 29.75 in 10.0 mi WSW 4.6 mph - N/A   Clear
6:54 PM 84.9 °F 92.1 °F 73.9 °F 69% 29.76 in 10.0 mi SSW 6.9 mph - N/A   Clear
7:54 PM 81.0 °F 85.8 °F 73.0 °F 77% 29.79 in 10.0 mi SSW 8.1 mph - N/A   Mostly Cloudy
8:54 PM 78.1 °F - 72.0 °F 81% 29.81 in 10.0 mi SSW 5.8 mph - N/A   Mostly Cloudy
9:54 PM 77.0 °F - 72.0 °F 84% 29.81 in 10.0 mi SW 3.5 mph - N/A   Clear
10:54 PM 73.9 °F - 71.1 °F 91% 29.81 in 10.0 mi South 5.8 mph - N/A   Clear
11:54 PM 75.0 °F - 71.1 °F 87% 29.81 in 10.0 mi Calm Calm - N/A   Clear